Weather History for Breckenridge, TX

Change the Weather History Date:

Sunday, September 9, 2012

  Actual Average (KABI) Record (KABI)
Temperature  
Mean Temperature 76 °F 78 °F  
Max Temperature 95 °F 89 °F 99 °F (1984)
Min Temperature 57 °F 67 °F 46 °F (2004)
Degree Days  
Heating Degree Days 0 0  
Month to date heating degree days 0  
Since 1 July heating degree days 0  
Cooling Degree Days 11 13  
Month to date cooling degree days 126  
Year to date cooling degree days 2071  
Growing Degree Days 26 (Base 50)    
Moisture  
Dew Point 38 °F    
Average Humidity 31    
Maximum Humidity 55    
Minimum Humidity 11    
Precipitation  
Precipitation 0.00 in 0.08 in 2.44 in (1900)
Month to date precipitation 0.72  
Year to date precipitation 17.68  
Sea Level Pressure  
Sea Level Pressure 30.14 in    
Wind  
Wind Speed 2 mph (SE)    
Max Wind Speed 10 mph    
Max Gust Speed -    
Visibility 10 miles    
Events      
T = Trace of Precipitation, MM = Missing Value Source: NWS Daily Summary

Daily Weather History Graph

Daily Weather History Graph

Search for Another Location

Airport:

Trip Planner

Search our weather history database for the weather conditions in past years. The results will help you decide how hot, cold, wet, or windy it might be!

Date:

Astronomy

Sep. 09, 2012 Rise Set
Actual Time 7:15 AM CDT 7:49 PM CDT
Civil Twilight 6:50 AM CDT 8:13 PM CDT
Nautical Twilight 6:21 AM CDT 8:42 PM CDT
Astronomical Twilight 5:51 AM CDT 9:12 PM CDT
Moon 1:00 AM CDT (9/9) 3:21 PM CDT (9/9)
Length of Visible Light 13h 22m
Length of Day
12h 33m
Last Quarter, 39% of the Moon is Illuminated
Sep 9
Last Quarter
Sep 15
New
Sep 22
First Quarter
Sep 29
Full
Oct 8
Last Quarter

Hourly Weather History & Observations

Time (CDT) Temp. Dew Point Humidity Pressure Visibility Wind Dir Wind Speed Gust Speed Precip Events Conditions
12:15 AM 60.8 °F 37.4 °F 42% 30.15 in 10.0 mi NW 3.5 mph - N/A   Clear
12:35 AM 60.8 °F 35.6 °F 39% 30.15 in 10.0 mi Calm Calm - N/A   Clear
12:55 AM 60.8 °F 37.4 °F 42% 30.14 in 10.0 mi Calm Calm - N/A   Clear
1:15 AM 62.6 °F 41.0 °F 45% 30.13 in 10.0 mi Calm Calm - N/A   Clear
1:35 AM 60.8 °F 41.0 °F 48% 30.13 in 10.0 mi Calm Calm - N/A   Clear
1:55 AM 59.0 °F 39.2 °F 48% 30.13 in 10.0 mi Calm Calm - N/A   Clear
2:15 AM 57.2 °F 37.4 °F 48% 30.13 in 10.0 mi Calm Calm - N/A   Clear
2:35 AM 59.0 °F 41.0 °F 51% 30.13 in 10.0 mi Calm Calm - N/A   Clear
2:55 AM 59.0 °F 41.0 °F 51% 30.13 in 10.0 mi Calm Calm - N/A   Clear
3:15 AM 57.2 °F 39.2 °F 51% 30.14 in 10.0 mi SW 4.6 mph - N/A   Clear
3:35 AM 59.0 °F 41.0 °F 51% 30.15 in 10.0 mi SSW 3.5 mph - N/A   Clear
3:55 AM 59.0 °F 41.0 °F 51% 30.15 in 10.0 mi SW 4.6 mph - N/A   Clear
4:15 AM 59.0 °F 41.0 °F 51% 30.15 in 10.0 mi SW 4.6 mph - N/A   Clear
4:35 AM 59.0 °F 41.0 °F 51% 30.15 in 10.0 mi Calm Calm - N/A   Clear
4:55 AM 59.0 °F 41.0 °F 51% 30.15 in 10.0 mi Calm Calm - N/A   Clear
5:15 AM 60.8 °F 41.0 °F 48% 30.15 in 10.0 mi SW 3.5 mph - N/A   Clear
5:35 AM 60.8 °F 41.0 °F 48% 30.15 in 10.0 mi Calm Calm - N/A   Clear
5:55 AM 59.0 °F 42.8 °F 55% 30.16 in 10.0 mi Calm Calm - N/A   Clear
6:15 AM 57.2 °F 39.2 °F 51% 30.16 in 10.0 mi Calm Calm - N/A   Clear
6:35 AM 57.2 °F 41.0 °F 55% 30.16 in 10.0 mi Calm Calm - N/A   Clear
6:55 AM 57.2 °F 41.0 °F 55% 30.18 in 10.0 mi WSW 4.6 mph - N/A   Clear
7:35 AM 59.0 °F 42.8 °F 55% 30.18 in 10.0 mi Calm Calm - N/A   Clear
7:55 AM 59.0 °F 42.8 °F 55% 30.18 in 10.0 mi Calm Calm - N/A   Clear
8:15 AM 64.4 °F 44.6 °F 49% 30.18 in 10.0 mi Calm Calm - N/A   Clear
8:35 AM 68.0 °F 46.4 °F 46% 30.19 in 10.0 mi Calm Calm - N/A   Clear
8:55 AM 71.6 °F 44.6 °F 38% 30.19 in 10.0 mi Calm Calm - N/A   Clear
9:15 AM 71.6 °F 41.0 °F 33% 30.19 in 10.0 mi Calm Calm - N/A   Clear
9:35 AM 73.4 °F 42.8 °F 33% 30.19 in 10.0 mi Calm Calm - N/A   Clear
9:55 AM 78.8 °F 42.8 °F 28% 30.20 in 10.0 mi Calm Calm - N/A   Clear
10:15 AM 80.6 °F 42.8 °F 26% 30.20 in 10.0 mi Calm Calm - N/A   Clear
10:35 AM 80.6 °F 42.8 °F 26% 30.20 in 10.0 mi Calm Calm - N/A   Clear
11:15 AM 84.2 °F 39.2 °F 20% 30.20 in 10.0 mi Calm Calm - N/A   Clear
11:35 AM 86.0 °F 37.4 °F 18% 30.20 in 10.0 mi North 3.5 mph - N/A   Clear
11:55 AM 82.4 °F 37.4 °F 20% 30.20 in 10.0 mi NNW 4.6 mph - N/A   Clear
12:15 PM 87.8 °F 37.4 °F 17% 30.19 in 10.0 mi Calm Calm - N/A   Clear
12:35 PM 86.0 °F 35.6 °F 17% 30.19 in 10.0 mi North 10.4 mph - N/A   Clear
12:55 PM 87.8 °F 35.6 °F 16% 30.18 in 10.0 mi NNE 3.5 mph - N/A   Clear
1:15 PM 86.0 °F 35.6 °F 17% 30.17 in 10.0 mi Calm Calm - N/A   Clear
1:35 PM 89.6 °F 33.8 °F 14% 30.16 in 10.0 mi NE 3.5 mph - N/A   Clear
1:55 PM 89.6 °F 33.8 °F 14% 30.15 in 10.0 mi East 5.8 mph - N/A   Clear
2:15 PM 89.6 °F 35.6 °F 15% 30.15 in 10.0 mi Calm Calm - N/A   Clear
2:35 PM 91.4 °F 35.6 °F 14% 30.13 in 10.0 mi NE 4.6 mph - N/A   Clear
2:55 PM 89.6 °F 33.8 °F 14% 30.12 in 10.0 mi NE 5.8 mph - N/A   Clear
3:15 PM 91.4 °F 32.0 °F 12% 30.11 in 10.0 mi SE 4.6 mph - N/A   Clear
3:35 PM 91.4 °F 32.0 °F 12% 30.11 in 10.0 mi Calm Calm - N/A   Clear
3:55 PM 91.4 °F 32.0 °F 12% 30.10 in 10.0 mi ENE 3.5 mph - N/A   Clear
4:15 PM 91.4 °F 32.0 °F 12% 30.10 in 10.0 mi SE 5.8 mph - N/A   Clear
4:35 PM 91.4 °F 32.0 °F 12% 30.09 in 10.0 mi Calm Calm - N/A   Clear
4:55 PM 93.2 °F 32.0 °F 11% 30.09 in 10.0 mi Calm Calm - N/A   Clear
5:15 PM 91.4 °F 32.0 °F 12% 30.09 in 10.0 mi NE 8.1 mph - N/A   Clear
5:35 PM 95.0 °F 32.0 °F 11% 30.08 in 10.0 mi Calm Calm - N/A   Clear
5:55 PM 91.4 °F 32.0 °F 12% 30.08 in 10.0 mi ENE 3.5 mph - N/A   Clear
6:15 PM 89.6 °F 32.0 °F 13% 30.08 in 10.0 mi ESE 5.8 mph - N/A   Clear
6:35 PM 89.6 °F 32.0 °F 13% 30.08 in 10.0 mi South 4.6 mph - N/A   Clear
6:55 PM 87.8 °F 33.8 °F 15% 30.08 in 10.0 mi East 6.9 mph - N/A   Clear
7:15 PM 87.8 °F 33.8 °F 15% 30.08 in 10.0 mi ESE 5.8 mph - N/A   Clear
7:35 PM 86.0 °F 33.8 °F 15% 30.08 in 10.0 mi SE 4.6 mph - N/A   Clear
7:55 PM 82.4 °F 35.6 °F 19% 30.08 in 10.0 mi SE 6.9 mph - N/A   Clear
8:15 PM 80.6 °F 35.6 °F 20% 30.08 in 10.0 mi SE 8.1 mph - N/A   Clear
8:35 PM 78.8 °F 37.4 °F 23% 30.08 in 10.0 mi SE 6.9 mph - N/A   Clear
8:55 PM 77.0 °F 37.4 °F 24% 30.09 in 10.0 mi SE 8.1 mph - N/A   Clear
9:15 PM 77.0 °F 37.4 °F 24% 30.10 in 10.0 mi SE 8.1 mph - N/A   Clear
9:35 PM 73.4 °F 37.4 °F 27% 30.10 in 10.0 mi SE 8.1 mph - N/A   Clear
9:55 PM 73.4 °F 37.4 °F 27% 30.11 in 10.0 mi SE 8.1 mph - N/A   Clear
10:15 PM 71.6 °F 37.4 °F 29% 30.11 in 10.0 mi SSE 8.1 mph - N/A   Clear
10:35 PM 71.6 °F 37.4 °F 29% 30.12 in 10.0 mi SSE 6.9 mph - N/A   Clear
10:55 PM 71.6 °F 37.4 °F 29% 30.12 in 10.0 mi SSE 8.1 mph - N/A   Clear
11:15 PM 69.8 °F 37.4 °F 31% 30.12 in 10.0 mi SSE 4.6 mph - N/A   Clear
11:35 PM 68.0 °F 37.4 °F 33% 30.12 in 10.0 mi SSE 3.5 mph - N/A   Clear
11:55 PM 66.2 °F 35.6 °F 32% 30.12 in 10.0 mi Calm Calm - N/A   Clear